[ hide orbit diagram ]
For accurate long-term ephemerides, please instead use our Horizons system.This orbit viewer was implemented using two-body methods, and hence should not be used for determining accurate long-term trajectories (over several years or decades) or planetary encounter circumstances.
Orbital Elements at Epoch 2459000.5 (2020-May-31.0) TDB
Reference: JPL 33 (heliocentric ecliptic J2000)
Element | Value | Uncertainty (1-sigma) | Units |
e | .1956595490996446 | 4.2552e-08 | |
a | 3.058185034915274 | 1.6726e-08 | au |
q | 2.459821929920471 | 1.274e-07 | au |
i | 3.513065111540148 | 3.9372e-06 | deg |
node | 80.3787961176063 | 6.7816e-05 | deg |
peri | 269.7818594848884 | 6.8464e-05 | deg |
M | 133.1322025084418 | 1.0503e-05 | deg |
tp | 2458278.105083464693 (2018-Jun-08.60508346) | 5.5585e-05 | TDB |
period | 1953.412961347352 5.35 | 1.6026e-05 4.388e-08 | d yr |
n | .1842928285638551 | 1.5119e-09 | deg/d |
Q | 3.656548139910077 | 1.9999e-08 | au |
|
| | Orbit Determination Parameters
Additional Information
|
[ show covariance matrix ]
Physical Parameter Table
Parameter |
Symbol |
Value |
Units |
Sigma |
Reference |
Notes |
absolute magnitude |
H |
13.7 |
|
n/a |
MPO458966 |
|
diameter |
diameter |
10.389 |
km |
0.710 |
urn:nasa:pds:neowise_diameters_albedos::2.0[mainbelt] (http://adsabs.harvard.edu/abs/2011ApJ...741...68M) |
|
geometric albedo |
albedo |
0.103 |
|
0.021 |
urn:nasa:pds:neowise_diameters_albedos::2.0[mainbelt] (http://adsabs.harvard.edu/abs/2011ApJ...741...68M) |
|
|
15156 (2000 FK38) Discovered 2000-Mar-29 by LINEAR at Socorro |
Reference: 20000523/Numbers.arc | Last Updated: 2004-04-19 |
|
[ hide close-approach data ]
Close-Approach Data ...sorted by Date/Time (TDB)
|
Date/Time (TDB) |
Time Uncertainty (days_HH:MM) |
Body |
Nominal Distance (au) |
Minimum Distance (au) |
Maximum Distance (au) |
V-relative (km/s) |
V-infinity (km/s) |
JD (TDB) |
Time Uncertainty (minutes) |
Semi-major axis (km) |
Semi-minor axis (km) |
range-LOV angle (deg) |
N-sigma |
BP |
Orbit Ref. |
Reference |
Modified |
1908-Mar-25 19:36 |
00:03 |
Jupiter |
1.79912792181945 |
1.79912740194002 |
1.79912844169958 |
1.78914458317889 |
1.50314537579605 |
2418026.316713724 |
2.68984058268255 |
142.174565359911 |
27.4296105281162 |
-67.5245562770786 |
2290013.22069659 |
T |
33 |
CATAB v2.0f-lin.ifort 2020-Nov-13 02:35:29 |
2020-Nov-13 02:35 |
1956-Dec-19 09:37 |
00:01 |
Jupiter |
1.79413034517958 |
1.7941297944366 |
1.79413089592185 |
1.53903196966372 |
1.19348408684862 |
2435826.900351152 |
1.44972370760862 |
120.117102791544 |
85.0447790870477 |
-87.0943251768976 |
1742494.58505497 |
T |
33 |
CATAB v2.0f-lin.ifort 2020-Nov-13 02:35:29 |
2020-Nov-13 02:35 |
1966-Jun-13 13:59 |
00:01 |
Jupiter |
1.98014478992835 |
1.98014425352961 |
1.98014532632699 |
2.93538667062943 |
2.78585340029755 |
2439290.082912681 |
1.19655624120812 |
39.1696804347903 |
14.2192061709526 |
89.3946657199904 |
2143498.71502255 |
T |
33 |
CATAB v2.0f-lin.ifort 2020-Nov-13 02:35:29 |
2020-Nov-13 02:35 |
2005-Sep-09 04:28 |
< 00:01 |
Jupiter |
1.9808942885054 |
1.98089385204638 |
1.9808947249643 |
2.28702068441827 |
2.09171498271974 |
2453622.686155810 |
0.294228506336701 |
62.1483493866751 |
6.82395002773139 |
88.046671786876 |
2604297.64913626 |
T |
33 |
CATAB v2.0f-lin.ifort 2020-Nov-13 02:35:29 |
2020-Nov-13 02:35 |
2015-Mar-07 05:11 |
< 00:01 |
Jupiter |
1.79841511342054 |
1.79841471757401 |
1.79841550926677 |
1.73512235273645 |
1.43829206236761 |
2457088.715725528 |
0.197992203169582 |
59.623923677258 |
31.4159542619136 |
-67.1304045859182 |
2368482.55998826 |
T |
33 |
CATAB v2.0f-lin.ifort 2020-Nov-13 02:35:29 |
2020-Nov-13 02:35 |
2063-Nov-29 04:03 |
00:01 |
Jupiter |
1.80191047100752 |
1.80191007276806 |
1.80191086924658 |
1.56239988580148 |
1.22513473204769 |
2474887.668878953 |
1.26549614930283 |
134.555733842851 |
64.2534667544116 |
-80.194283273372 |
2214024.73216719 |
T |
33 |
CATAB v2.0f-lin.ifort 2020-Nov-13 02:35:29 |
2020-Nov-13 02:35 |
2073-May-24 01:51 |
00:01 |
Jupiter |
1.96962349102286 |
1.96962280298983 |
1.96962417905566 |
2.81949976334263 |
2.6626102228706 |
2478351.577081106 |
1.45937409597424 |
43.0085434692448 |
15.347511018021 |
85.0775999462271 |
1723045.84808621 |
T |
33 |
CATAB v2.0f-lin.ifort 2020-Nov-13 02:35:29 |
2020-Nov-13 02:35 |
2112-Aug-20 04:38 |
00:02 |
Jupiter |
1.99194236575984 |
1.99194144410396 |
1.99194328741538 |
2.36184832338592 |
2.17436857135854 |
2492683.692856660 |
2.43688510114522 |
75.7015834114014 |
10.319534905087 |
-87.9983723389363 |
1496388.81743888 |
T |
33 |
CATAB v2.0f-lin.ifort 2020-Nov-13 02:35:29 |
2020-Nov-13 02:35 |
2122-Feb-15 06:53 |
00:03 |
Jupiter |
1.79608528524422 |
1.79608463391929 |
1.7960859365715 |
1.68433883171794 |
1.37615765383237 |
2496149.787069380 |
2.72921097228267 |
193.758118715669 |
34.5785131363308 |
-64.6185661367682 |
2384299.78456771 |
T |
33 |
CATAB v2.0f-lin.ifort 2020-Nov-13 02:35:29 |
2020-Nov-13 02:35 |
2170-Nov-10 12:23 |
00:04 |
Jupiter |
1.80691114459461 |
1.80691043859731 |
1.80691185059428 |
1.58613240484164 |
1.25629597284188 |
2513950.016258329 |
3.93011354381405 |
232.057127408462 |
73.0612553332729 |
77.3371382500358 |
1708758.32760332 |
T |
33 |
CATAB v2.0f-lin.ifort 2020-Nov-13 02:35:29 |
2020-Nov-13 02:35 |
2180-May-04 13:00 |
00:04 |
Jupiter |
1.96015420974356 |
1.96015267177645 |
1.96015574771 |
2.70567465034973 |
2.54095151883186 |
2517413.041605768 |
4.09899555794695 |
81.9563513397373 |
15.8192232219818 |
76.129645093307 |
1241010.58388218 |
T |
33 |
CATAB v2.0f-lin.ifort 2020-Nov-13 02:35:29 |
2020-Nov-13 02:35 |
|
Alternate Designations
2000 FK38 = 1991 RH21 = 1994 CQ19 = 1997 YA20 = 1999 CY30 |
|
|